User: anonymous   Login
Location: Shepherdstown, WV
(39.4326°N, 77.8042°W)
Time: 00:09:04
(UTC-04:00)
Language:

Altair - Orbit

View from above orbital plane
View from above orbital plane
View from above satellite
View from above satellite

Ground track
Ground track

The orbit data is extracted from the following two-line orbital elements,

1 00050U 60009B   21206.68417716 -.00000098  00000-0 -10862-3 0  9990
2 00050  47.2329 309.7784 0113414  87.6574 273.7196 12.20116175719450
Epoch (UTC): 25 July 2021 16:25:12
Eccentricity: 0.0113414
inclination: 47.2329°
perigee height: 1501 km
apogee height: 1682 km
right ascension of ascending node: 309.7784°
argument of perigee: 87.6574°
revolutions per day: 12.20116175
mean anomaly at epoch: 273.7196°
orbit number at epoch: 71945

The dashed part of the orbit path shows where the satellite is in the earth's shadow,  

DLR